GFSSW_sfc_wetblb_237.txt.gz
Wetbulb
52.94 52.80 53.02 53.14 53.29 53.43 53.60 53.88 53.86 53.74 53.62 53.65 53.60 53.54 53.48 53.22 52.67 47.07 41.99 45.84 48.32 54.14 55.52 51.73 48.28 48.47 48.88 47.34 53.07 51.92 43.84 41.41 41.66 42.85 44.19 46.70 48.51 49.83 51.22 52.02 58.56 58.21 58.11 58.36 60.49
52.43 52.40 52.84 52.87 53.02 53.09 53.36 53.53 53.58 53.49 53.50 53.48 53.31 53.22 53.11 52.60 45.95 42.01 48.40 51.82 53.76 54.64 48.42 47.55 43.94 45.59 44.64 45.59 48.72 48.18 44.20 44.01 45.40 45.86 45.78 47.11 48.14 47.80 48.24 51.74 50.75 51.34 56.89 59.48 58.57
52.03 52.16 52.29 52.66 52.69 52.85 53.15 53.43 53.40 53.27 53.41 53.21 53.04 52.68 52.37 49.77 38.71 38.14 51.16 53.67 54.45 52.19 48.85 48.57 46.96 45.56 41.43 43.77 44.15 47.01 43.46 48.03 47.52 47.71 48.33 46.95 46.53 49.87 48.06 47.12 48.67 50.55 54.59 58.05 56.96
51.50 51.91 52.26 52.27 52.36 52.58 53.10 53.28 53.18 53.15 53.22 53.22 52.72 52.33 52.32 45.65 27.62 42.01 51.53 52.43 53.62 49.28 46.82 45.08 44.47 40.70 38.08 38.33 43.04 41.47 47.45 49.03 49.68 49.72 47.94 46.53 48.25 47.02 48.82 48.21 51.40 55.77 56.45 57.85 56.28
51.46 51.76 51.87 51.77 52.19 52.64 52.89 52.65 52.76 53.02 53.05 52.94 52.74 52.35 47.92 38.53 37.92 46.50 51.05 50.40 49.41 47.02 43.65 42.14 39.89 39.67 35.29 38.99 40.87 40.92 43.70 48.80 50.27 50.34 49.07 49.35 46.45 46.04 48.71 50.90 50.14 58.96 56.96 56.17 56.80
51.52 51.57 51.63 51.78 51.89 52.12 52.31 52.60 52.90 52.91 52.58 52.83 52.95 51.56 43.90 33.97 45.60 46.98 46.14 48.93 48.31 46.67 44.00 43.35 41.29 42.67 39.00 37.03 36.74 44.14 44.47 47.60 49.05 49.76 50.43 48.54 46.89 47.30 48.12 50.95 49.04 57.46 57.15 56.78 55.08
51.26 51.16 51.13 51.35 51.80 51.88 51.95 52.73 52.93 52.28 52.20 52.92 51.93 49.34 43.27 39.47 46.94 47.25 49.11 48.40 48.99 46.93 43.75 45.59 44.97 40.99 40.18 37.28 43.08 42.12 39.36 45.71 48.09 48.94 49.06 49.49 46.10 44.04 48.57 49.02 47.93 47.93 56.73 57.99 56.78
51.27 51.29 51.50 51.52 51.61 51.58 52.33 52.76 51.95 51.60 52.00 52.18 51.72 45.89 38.68 47.75 48.00 48.27 49.25 48.02 49.28 48.83 47.28 47.34 46.06 42.45 41.34 42.84 40.43 36.59 41.51 38.45 46.01 48.57 48.68 48.20 41.27 46.32 47.73 47.16 46.42 46.56 47.40 56.27 57.73
50.88 50.99 51.10 51.29 51.26 51.50 52.31 51.62 50.23 50.71 50.35 50.42 44.88 41.76 35.41 47.48 44.16 48.13 49.55 46.45 46.70 47.06 47.84 47.75 45.14 40.40 40.86 34.24 33.86 35.70 35.30 38.03 42.41 48.35 45.89 46.08 41.79 45.98 48.93 47.91 46.19 46.09 45.92 48.17 56.69
50.56 50.47 50.90 51.02 50.97 51.78 51.34 48.65 47.72 46.00 44.80 47.03 44.33 35.28 38.87 37.72 43.91 47.76 49.71 48.96 44.79 44.78 43.53 42.36 40.73 34.52 34.84 32.78 27.55 29.21 32.32 37.14 39.57 44.17 44.75 43.25 41.39 45.57 47.18 46.60 46.48 45.81 46.00 45.63 52.37
50.33 50.35 50.70 50.68 50.90 51.53 44.66 36.48 32.84 31.28 36.19 32.63 33.97 35.71 37.80 42.03 46.91 46.30 46.93 46.27 45.45 40.00 35.13 36.90 34.61 28.37 32.72 34.21 35.32 35.25 35.76 36.84 40.43 44.70 42.57 41.88 42.03 43.83 46.37 46.01 45.42 46.41 45.59 45.34 48.06
50.20 50.57 50.84 50.89 50.91 49.64 41.43 35.90 34.83 35.86 30.04 36.85 37.85 37.98 40.40 41.36 39.59 43.04 46.69 41.17 37.75 34.37 36.59 34.31 30.60 35.70 36.36 37.66 35.70 36.32 35.20 35.30 41.69 44.30 42.54 41.47 40.39 43.22 44.93 45.58 46.38 46.18 45.85 45.78 43.25
50.00 50.47 50.24 50.06 49.94 43.33 39.38 38.50 43.59 41.73 31.02 33.17 35.73 35.04 37.47 41.42 39.13 39.54 42.05 40.70 38.40 33.87 33.69 32.11 33.26 36.56 36.48 35.49 35.67 34.58 32.79 33.99 38.10 42.17 40.37 39.94 37.50 39.47 43.48 45.15 46.34 47.41 45.91 46.36 45.69
49.24 49.51 49.51 49.85 40.79 40.03 37.88 42.83 43.68 39.94 13.04 25.09 29.76 35.53 37.63 37.76 35.79 43.29 44.42 39.51 36.47 33.18 34.46 33.57 36.80 35.43 36.19 34.42 33.27 30.11 36.74 38.35 39.64 37.03 32.15 36.24 26.90 34.15 40.78 41.97 43.92 45.89 46.85 45.63 46.54
49.07 48.82 50.17 46.03 39.23 37.55 39.70 42.81 42.48 32.74 7.00 26.45 29.38 39.73 37.48 36.57 37.63 38.25 42.68 39.16 34.05 33.28 32.55 31.21 31.21 30.89 31.85 32.48 34.16 31.38 37.30 36.13 36.08 31.75 30.40 30.89 28.22 31.47 36.65 37.06 40.69 44.38 45.62 47.01 45.55
48.86 48.64 47.20 42.40 40.38 40.12 42.45 39.56 33.98 14.89 7.05 21.75 29.22 29.49 30.66 32.60 34.80 37.08 36.96 38.72 37.86 31.96 32.18 32.00 36.40 33.76 31.10 34.55 35.45 35.73 33.80 32.54 31.19 30.47 23.02 28.96 28.80 29.36 32.92 35.47 37.30 40.40 41.53 44.18 45.50
48.78 48.71 45.32 42.42 34.27 41.24 40.38 32.05 15.03 8.91 20.54 15.93 23.77 28.08 27.72 27.81 31.25 33.07 31.26 30.42 30.08 21.25 22.46 26.97 29.45 34.40 35.28 31.20 34.80 33.26 28.50 21.35 18.84 17.06 19.96 28.08 27.52 30.65 36.56 38.30 37.01 37.25 37.76 38.46 39.77
48.63 48.03 44.97 43.06 41.01 40.07 32.66 20.77 7.63 2.82 6.24 24.99 27.10 27.17 24.56 27.18 28.69 30.12 29.61 27.91 33.18 31.48 27.42 20.68 17.98 31.49 35.91 31.66 28.29 30.69 27.72 20.73 12.82 16.66 21.39 27.71 24.66 30.17 35.03 37.33 37.45 37.12 37.47 37.81 38.42
45.86 38.53 38.74 40.80 41.55 35.63 24.61 6.89 9.63 7.15 23.11 25.16 25.11 17.61 16.98 26.14 26.62 26.19 23.28 26.98 31.47 32.36 28.25 26.71 19.36 33.62 34.72 35.27 32.57 28.87 24.45 28.91 22.94 15.21 19.34 23.48 28.16 33.27 34.74 34.67 34.92 35.05 35.67 35.56 36.68
36.99 34.98 35.54 40.36 39.60 29.98 18.41 14.78 10.44 23.77 27.78 26.79 14.03 20.23 7.70 15.00 20.13 19.11 23.05 27.12 27.89 33.44 35.45 31.32 19.03 29.60 32.42 33.90 33.19 30.70 31.94 23.98 21.84 9.29 11.63 20.91 22.94 24.35 29.52 31.30 33.29 33.66 34.23 35.89 37.13
34.91 26.59 34.83 39.06 33.20 23.32 12.02 7.60 12.52 26.19 28.64 26.05 20.38 13.91 20.35 15.59 14.65 19.00 22.68 27.04 27.46 31.28 33.78 33.23 27.00 24.22 29.18 29.82 29.12 28.89 26.71 27.17 25.70 23.35 17.84 16.93 20.75 27.73 29.79 31.66 31.77 32.94 34.79 35.71 37.36
29.84 18.65 34.84 35.14 20.61 6.91 7.76 11.21 27.97 27.71 29.21 26.26 26.02 25.97 23.01 22.96 17.53 17.44 20.82 25.47 29.44 29.82 27.38 32.62 31.60 25.71 28.74 34.04 33.79 32.42 28.75 27.56 20.01 20.22 21.80 23.30 21.85 31.06 30.70 32.17 33.53 34.07 35.04 35.59 37.36
23.47 21.53 35.07 32.13 13.47 12.92 20.75 12.44 24.12 26.61 27.72 26.58 23.86 26.37 27.03 24.32 14.32 23.50 21.20 29.00 29.53 27.42 27.91 30.59 24.65 20.44 21.93 24.80 29.56 29.59 30.63 31.15 28.76 26.81 22.72 18.10 21.03 32.05 32.22 34.03 35.21 34.67 35.40 35.26 35.78
23.03 18.37 22.99 27.78 22.21 16.38 12.18 9.42 14.60 28.11 28.36 28.97 27.53 27.87 24.29 21.23 19.45 16.21 23.67 27.60 29.61 28.77 33.89 32.24 25.34 19.13 15.20 20.19 27.14 27.81 30.78 31.85 27.83 19.97 22.83 24.80 25.81 30.65 32.51 33.79 34.99 34.11 33.79 34.42 36.22
22.28 17.38 17.39 14.72 17.32 17.63 15.65 16.33 15.49 16.14 26.60 28.69 25.49 26.30 22.88 14.19 18.96 15.99 19.12 24.96 27.57 29.91 27.70 23.42 11.56 21.51 24.30 25.37 26.68 26.49 28.89 30.96 31.20 29.46 26.27 25.89 26.39 32.22 33.89 33.67 32.68 34.27 35.83 36.42 36.76
26.26 21.35 20.72 15.01 22.78 19.89 17.71 12.98 20.45 22.66 24.28 23.09 21.92 26.41 25.21 18.87 21.21 16.05 24.28 22.75 21.61 25.95 24.21 26.20 8.31 14.01 8.72 20.63 21.44 23.16 25.06 25.16 26.81 30.36 30.60 30.53 28.36 32.25 32.92 31.85 30.50 31.87 33.54 34.33 34.80
31.35 29.41 26.10 26.70 20.37 17.12 17.04 19.37 22.83 26.01 27.10 28.01 27.24 26.40 24.82 25.49 26.49 25.92 27.05 26.77 26.52 23.68 17.02 15.34 5.56 1.90 2.81 12.17 13.15 8.52 18.11 24.29 24.62 25.69 26.12 23.93 27.04 29.22 29.67 30.37 30.23 30.38 31.66 33.46 33.93

GFSSW_sfc_wetblb_243.txt.gz
Wetbulb
52.84 52.90 53.10 53.00 53.12 53.26 53.37 53.61 53.84 53.81 53.75 53.87 53.87 53.97 53.84 53.51 52.44 44.98 39.29 44.05 48.21 54.74 51.88 47.08 48.27 46.34 46.81 44.63 46.58 48.42 38.73 35.18 39.12 41.98 43.83 48.03 47.76 50.63 52.44 55.33 56.52 58.37 56.44 59.19 61.71
52.42 52.51 52.59 52.91 52.93 52.92 53.05 53.42 53.61 53.37 53.42 53.62 53.83 53.99 53.55 53.31 44.08 39.18 48.02 52.26 53.77 52.97 45.64 42.92 42.12 44.96 39.59 42.47 43.87 40.58 34.51 34.33 42.04 45.07 45.72 47.86 48.05 48.69 51.39 50.55 50.00 52.23 57.13 60.53 60.83
51.89 52.08 52.43 52.55 52.50 52.71 53.08 53.18 53.04 53.11 53.44 53.56 53.64 53.65 53.45 48.93 35.74 38.22 50.24 54.02 54.29 50.91 46.23 45.42 45.45 44.44 39.37 40.97 39.84 39.75 33.71 36.67 40.16 43.88 46.42 47.46 47.19 49.79 47.98 45.88 49.31 49.38 54.18 58.86 60.01
51.57 51.79 52.05 52.01 52.16 52.37 52.75 52.87 52.96 53.10 53.47 53.36 53.21 53.37 52.19 43.64 29.07 41.83 51.02 52.37 53.68 49.56 45.90 43.36 41.98 39.56 37.28 34.39 39.36 34.54 37.60 39.12 40.65 42.81 42.78 44.83 48.91 47.84 47.73 47.99 51.14 51.58 56.55 57.27 58.38
51.41 51.62 51.55 51.57 52.04 52.47 52.80 52.80 52.83 53.39 53.43 53.09 52.85 52.56 45.23 36.89 37.36 45.84 51.44 50.06 46.31 47.60 44.13 42.01 39.34 37.90 34.29 35.63 36.75 34.34 34.83 37.92 40.95 42.69 43.41 47.88 47.24 47.49 46.94 49.16 54.75 56.59 57.37 57.41 59.18
51.34 51.39 51.49 51.66 51.88 52.23 52.47 52.48 53.11 53.44 52.90 52.41 52.46 51.74 41.16 32.15 44.97 46.33 45.73 46.05 45.26 45.43 43.97 44.00 40.90 41.26 36.07 35.99 34.43 35.97 35.95 36.66 38.43 41.96 42.53 44.38 45.95 48.42 48.11 50.75 49.55 54.84 56.34 57.19 58.01
51.18 51.17 51.26 51.36 51.69 52.02 52.09 52.44 53.13 52.42 51.78 51.74 52.38 48.07 40.56 37.52 46.23 46.84 47.27 46.21 47.49 47.77 44.10 46.13 44.64 40.41 39.58 35.58 39.13 37.21 31.95 34.57 37.26 41.08 40.45 48.12 43.79 43.23 48.05 48.83 46.99 48.89 50.60 52.72 57.47
50.83 50.98 50.94 50.92 51.36 51.68 51.92 52.73 52.35 50.84 51.17 51.54 52.74 43.70 35.98 45.99 46.48 46.35 47.52 47.05 49.31 49.18 47.43 47.60 46.64 41.40 38.57 39.68 36.36 31.60 33.40 29.54 38.44 39.94 40.88 47.01 39.33 45.44 48.43 47.93 46.53 47.37 49.15 50.11 50.62
50.65 50.71 50.79 50.92 51.18 51.49 51.99 52.12 49.94 49.12 50.51 52.10 43.34 39.03 33.90 46.26 40.88 44.61 46.71 45.18 47.49 47.64 47.44 47.74 44.82 39.00 38.98 32.40 30.25 31.20 27.62 31.18 34.11 42.10 43.51 44.94 41.69 46.53 48.12 48.03 47.29 47.26 48.98 50.37 51.32
50.43 50.62 50.69 50.91 51.32 51.43 51.04 48.64 47.70 44.84 43.68 45.43 42.74 33.77 37.53 35.66 40.50 43.04 46.70 47.65 44.20 43.85 41.37 41.27 39.41 34.53 33.48 30.68 21.78 26.04 31.10 32.74 34.91 42.77 42.97 40.10 41.78 46.12 48.37 47.20 47.00 48.33 48.36 49.62 50.93
50.34 50.40 50.61 50.97 50.77 50.78 43.14 34.58 31.51 30.00 35.09 30.79 31.60 32.60 35.65 39.26 43.00 43.87 45.48 44.14 43.62 40.75 32.81 37.32 33.10 28.59 30.02 32.17 32.14 30.89 30.38 35.69 40.41 43.34 39.02 40.65 41.49 43.74 46.85 48.20 47.49 47.00 48.99 48.13 49.75
50.11 50.13 50.33 50.21 50.57 48.95 39.36 34.40 33.08 34.44 28.70 34.39 35.86 35.89 37.86 39.29 37.47 41.03 44.69 38.89 37.39 33.78 35.97 30.21 30.51 34.86 35.13 34.26 32.62 32.34 32.65 34.39 39.70 42.25 39.10 39.82 39.61 43.25 45.05 46.48 47.63 47.18 47.92 48.46 47.71
49.84 49.40 49.62 50.78 49.26 42.18 37.26 36.01 41.73 38.90 28.99 30.65 32.56 32.80 35.15 37.17 35.87 38.00 41.13 38.35 35.25 33.78 33.19 24.81 33.97 35.16 35.16 33.88 33.05 33.85 34.07 33.51 35.58 40.37 40.66 39.04 36.99 39.83 43.91 45.84 47.04 48.46 48.38 49.40 48.68
49.15 49.27 49.44 48.77 39.36 38.05 35.27 40.64 41.61 36.52 15.58 25.99 28.85 33.38 35.72 36.34 33.50 40.18 41.95 37.96 34.01 31.78 32.88 30.43 35.77 36.81 36.22 32.78 31.80 31.04 36.76 36.53 37.01 36.47 31.77 37.44 27.16 34.39 38.45 42.20 44.49 46.19 47.03 48.14 48.20
49.04 48.93 48.66 45.57 36.45 33.86 37.70 40.91 38.92 31.86 9.63 26.36 28.65 37.76 35.83 34.22 34.51 35.49 39.53 36.75 31.56 30.76 30.06 29.42 31.85 30.89 30.51 30.61 32.24 32.52 38.35 37.61 36.92 33.77 33.91 30.01 28.46 30.00 35.75 34.32 35.46 36.77 37.92 39.96 42.27
48.27 48.32 46.81 40.51 37.47 37.87 40.20 34.56 31.63 17.33 10.72 22.43 27.84 28.60 29.63 30.94 32.20 34.36 34.59 36.82 35.35 30.07 29.84 28.99 33.01 33.25 32.60 34.00 33.26 35.27 34.95 33.68 31.81 31.20 25.77 27.78 27.98 26.35 28.44 30.76 34.15 35.84 36.32 37.87 40.36
48.00 48.23 43.42 39.49 32.63 39.27 37.01 30.39 17.04 11.43 21.45 16.59 23.73 27.49 27.24 26.98 29.42 29.49 29.23 28.39 27.81 19.77 19.24 26.98 28.48 32.33 34.44 31.27 35.99 33.82 29.44 21.03 20.54 20.76 22.01 27.75 25.46 25.99 31.36 32.74 33.03 33.60 34.99 36.95 39.92
47.79 47.74 43.84 40.96 39.40 37.11 31.33 21.74 10.20 7.34 8.33 23.69 26.21 26.48 23.71 26.64 27.69 27.12 26.38 22.96 30.14 28.86 19.48 18.58 18.95 29.11 33.54 31.50 29.19 29.36 27.34 19.49 13.68 16.97 21.60 27.33 21.65 25.74 32.87 34.17 34.97 36.07 36.38 38.31 38.94
46.43 37.32 37.79 38.81 38.99 33.38 25.36 9.41 11.75 9.56 21.85 24.41 24.31 17.75 16.86 25.54 24.98 24.11 20.99 21.15 29.16 31.81 24.48 22.97 18.50 30.24 31.83 32.77 30.81 28.97 24.18 28.30 21.24 13.21 18.45 21.21 25.56 30.73 32.92 33.91 34.12 34.36 35.55 35.98 37.46
35.57 33.66 34.56 38.64 34.87 29.33 19.21 17.24 11.16 21.78 27.24 25.84 14.22 18.67 8.56 14.40 19.35 18.32 20.92 25.39 26.26 30.07 32.66 30.59 18.58 27.79 31.27 32.21 32.16 28.87 29.96 23.53 21.74 10.69 10.72 19.38 20.61 22.25 28.12 30.30 32.10 32.37 32.65 34.30 36.51
33.99 26.87 33.54 37.47 31.77 24.49 13.87 8.37 10.86 24.72 27.69 24.83 19.82 11.96 19.19 14.34 13.42 17.76 20.10 25.55 25.65 26.91 30.30 30.70 25.07 23.54 28.40 30.29 29.38 28.76 26.59 25.83 24.52 22.37 16.60 15.12 18.83 26.26 28.23 30.77 30.81 31.17 32.26 32.93 34.66
30.16 18.73 33.29 33.05 19.10 7.74 8.51 9.64 26.52 26.18 27.95 25.80 24.28 24.31 21.29 21.55 17.32 17.18 20.31 23.84 27.30 25.73 26.31 32.00 29.23 19.96 25.99 30.58 31.62 30.47 27.52 26.11 19.96 19.56 20.54 20.83 19.15 29.64 32.09 32.56 32.72 32.73 33.52 34.48 34.67
25.33 22.29 33.09 30.81 13.45 9.37 19.40 16.08 23.21 26.13 26.82 26.07 23.28 25.81 25.99 23.07 14.75 22.67 19.88 28.10 28.48 27.37 26.00 31.34 19.84 10.88 17.02 22.77 28.34 28.20 30.20 29.98 27.38 24.95 20.84 16.65 18.69 28.82 32.32 31.54 31.84 31.77 32.66 33.70 33.81
23.32 18.30 21.94 24.90 21.50 16.11 15.65 10.29 14.37 27.39 27.59 28.24 26.93 26.92 23.34 20.88 18.80 17.00 22.93 26.62 28.74 28.43 32.86 31.77 24.28 18.88 15.60 19.40 24.74 27.15 28.99 29.95 26.69 18.46 21.44 21.70 22.77 28.45 29.76 28.49 29.25 30.45 31.56 32.13 32.50
18.76 17.96 19.59 17.12 15.96 18.19 16.51 16.20 15.98 16.58 25.86 27.67 24.41 25.19 21.85 15.47 18.72 15.03 18.61 23.81 26.81 28.47 27.05 22.22 11.77 19.14 22.72 21.66 23.37 25.65 26.65 28.51 27.62 26.14 22.03 23.66 25.41 27.47 28.39 27.36 28.35 29.59 30.54 30.76 31.11
23.78 21.98 21.28 12.44 20.58 18.44 18.98 12.87 20.23 22.15 22.95 21.20 19.66 25.22 23.21 18.84 20.81 16.80 22.90 21.06 21.26 24.49 23.15 24.15 12.59 15.15 10.46 18.91 18.76 21.08 23.99 24.60 26.41 29.33 29.76 29.50 26.95 28.12 28.11 26.78 26.64 28.43 29.34 29.45 29.83
28.41 29.36 25.09 23.75 19.57 16.50 15.14 16.95 21.39 25.06 25.94 27.05 25.26 24.54 22.56 23.67 24.98 25.84 25.73 25.58 25.25 22.96 17.64 15.52 8.44 4.41 4.68 8.15 10.02 7.11 15.98 22.64 23.42 24.83 26.11 23.71 26.53 27.62 26.24 27.68 27.77 27.88 28.74 29.03 29.77

GFSSW_sfc_wetblb_246.txt.gz
Wetbulb
52.96 52.95 53.02 53.28 53.31 53.31 53.43 53.69 53.96 53.87 53.80 54.08 54.33 54.49 54.38 54.37 53.08 48.34 44.68 48.79 50.67 54.32 51.86 49.41 48.24 48.51 48.01 44.03 46.92 48.95 38.67 34.69 38.30 41.61 44.86 50.53 50.19 54.56 56.65 55.50 58.67 60.83 59.85 61.71 63.32
52.48 52.44 52.74 53.07 52.81 52.95 53.26 53.54 53.55 53.51 53.67 54.04 54.11 54.24 54.29 53.51 47.68 44.51 50.15 52.58 54.28 53.31 49.45 46.10 44.28 45.51 42.52 41.60 43.38 41.06 35.03 35.45 40.93 42.98 45.19 48.69 50.62 52.23 52.85 54.25 55.98 57.65 60.70 62.32 62.63
51.84 52.04 52.47 52.37 52.34 52.68 53.00 53.28 53.38 53.31 53.66 53.89 53.73 53.84 53.91 51.22 41.55 43.63 51.48 53.68 54.80 53.68 50.15 47.61 46.28 44.34 40.28 41.83 40.09 40.18 35.18 38.09 38.57 41.69 45.17 45.72 47.81 51.57 51.63 51.39 55.36 56.02 58.82 59.63 60.94
51.48 51.92 52.00 51.87 52.16 52.74 53.01 53.15 53.15 53.35 53.81 53.85 53.34 53.54 53.04 47.27 35.18 46.85 50.61 52.81 53.38 51.94 48.65 45.50 43.02 38.63 37.64 36.49 39.61 33.71 37.66 38.84 40.45 41.05 40.21 42.06 47.76 48.21 50.00 53.63 55.24 56.35 59.98 59.01 59.42
51.48 51.66 51.76 51.88 52.17 52.50 52.87 52.99 53.02 53.53 53.79 53.44 52.81 52.82 48.70 42.43 42.10 49.67 51.04 50.36 49.32 48.13 45.28 42.43 40.67 39.14 34.93 36.44 37.58 34.23 36.52 38.67 39.65 40.23 40.32 42.55 43.36 46.35 47.80 53.99 58.05 58.04 57.92 58.52 59.00
51.44 51.48 51.44 51.56 51.73 52.12 52.59 52.75 53.02 53.56 53.09 52.41 52.02 51.87 45.75 38.05 48.82 49.67 49.64 49.27 49.52 48.33 46.18 44.58 41.76 41.28 37.54 36.97 35.83 37.45 37.96 37.78 39.23 39.94 40.94 40.10 42.11 45.69 49.02 52.22 56.87 57.34 57.04 57.83 58.98
51.11 51.31 51.38 51.33 51.41 51.83 52.25 52.49 53.18 52.85 51.67 51.54 52.53 50.32 44.19 42.14 49.90 50.69 49.67 48.85 50.02 48.83 45.13 47.09 45.27 40.50 39.98 36.63 40.37 38.69 34.36 36.36 37.37 38.32 38.72 43.31 39.19 42.45 49.41 50.74 53.50 51.84 53.23 56.38 58.67
50.95 50.97 51.09 51.16 51.42 51.80 52.33 52.58 52.40 50.87 50.98 51.38 53.16 48.87 41.09 49.15 51.72 48.28 49.90 49.38 51.46 50.21 48.36 48.77 46.83 41.45 39.18 40.64 38.48 34.91 35.67 30.64 35.78 37.77 39.63 40.85 34.56 44.30 49.13 49.92 51.08 51.34 51.03 51.43 52.61
50.47 50.76 51.02 51.04 51.35 51.76 51.95 51.67 49.67 49.47 50.89 53.26 48.88 45.09 39.73 49.79 44.60 46.99 49.40 46.95 48.87 48.31 48.00 48.61 45.64 39.71 39.76 34.48 30.93 33.94 28.61 30.14 33.22 38.95 39.41 37.23 33.61 47.06 50.74 49.09 50.00 51.61 51.20 51.90 51.87
50.36 50.62 50.85 50.94 51.17 51.31 51.36 48.24 47.27 47.09 49.01 48.78 46.01 41.18 43.47 39.86 43.64 45.17 49.90 48.99 46.15 45.14 43.15 42.65 41.47 36.59 36.26 33.18 24.92 27.14 27.97 32.19 32.00 37.23 36.61 36.90 35.15 46.02 49.00 48.91 48.16 49.93 51.57 51.02 51.81
50.32 50.53 50.50 50.64 50.66 51.34 46.23 42.90 39.68 37.96 41.73 37.27 36.65 37.13 39.73 43.13 46.26 46.62 47.94 46.71 45.54 42.53 37.33 39.23 35.17 31.99 34.71 34.87 33.48 32.25 30.23 30.85 34.09 39.52 35.65 34.71 41.65 44.29 48.14 48.45 47.40 48.56 50.11 50.13 51.34
50.04 50.24 49.96 50.33 51.07 48.27 44.82 39.48 38.63 39.67 34.38 38.31 38.21 38.22 40.16 41.99 39.47 44.28 47.91 42.86 40.83 37.00 39.84 36.79 32.87 35.95 36.86 35.92 33.75 33.18 32.79 31.95 37.61 40.39 37.88 37.47 39.39 43.62 45.92 46.62 47.90 47.15 48.46 49.77 49.60
49.77 49.52 49.58 49.84 47.85 45.55 42.41 40.75 45.01 42.86 35.62 34.95 35.75 36.32 38.63 40.12 39.13 40.57 43.90 41.80 38.61 37.06 36.88 34.22 36.23 36.73 36.08 36.14 35.53 35.76 35.91 37.09 36.01 40.67 41.01 38.23 34.48 40.58 42.87 44.26 43.60 43.78 47.08 49.31 49.67
49.36 49.11 49.24 48.44 43.30 43.36 39.84 43.56 45.42 42.96 33.18 30.23 34.03 37.28 39.30 39.87 37.74 42.78 43.88 41.61 38.64 34.42 35.95 36.25 39.03 36.71 37.51 35.69 34.29 34.77 37.88 38.52 38.12 36.94 30.13 37.27 27.36 33.63 37.94 37.54 38.43 39.42 40.32 41.08 45.34
48.97 48.84 48.49 46.64 43.18 39.43 41.24 44.55 44.07 38.86 28.20 30.05 33.30 41.11 39.69 37.43 36.94 39.66 42.86 41.36 35.37 34.94 36.52 34.08 34.78 34.82 36.28 34.63 35.97 36.35 40.49 38.93 38.00 36.42 34.30 31.86 30.21 30.49 36.37 34.67 36.00 38.60 39.53 40.65 43.44
48.48 48.33 46.86 43.97 43.36 42.81 44.22 41.43 38.92 34.37 24.72 27.09 31.75 32.35 34.75 35.67 36.07 37.78 38.57 41.85 39.63 34.85 36.33 34.82 37.81 37.02 36.19 36.40 36.11 38.22 38.79 37.38 36.25 36.56 28.37 30.35 31.28 28.23 30.81 32.60 35.53 38.25 39.61 41.35 43.02
48.38 48.38 44.72 42.45 38.85 43.69 42.24 39.21 32.73 31.21 26.05 25.28 27.78 30.94 31.00 31.24 33.33 33.49 34.00 33.05 31.17 29.64 30.21 33.93 34.56 37.68 37.73 37.29 40.42 38.25 35.19 31.94 29.92 28.56 24.91 32.04 27.69 28.85 34.64 36.38 37.05 37.49 39.38 40.97 42.58
48.02 47.27 43.87 42.88 44.13 41.67 39.40 33.99 27.27 18.60 21.17 26.57 28.14 29.76 28.12 30.15 31.26 31.63 31.27 30.96 34.11 32.49 29.91 28.28 29.05 34.05 37.15 34.74 33.28 33.90 33.40 28.82 22.78 24.97 25.81 31.30 24.49 29.18 36.37 38.10 39.11 39.28 40.04 41.67 41.50
46.67 43.22 43.13 42.65 42.04 39.98 35.38 29.91 29.07 23.16 25.59 27.32 27.25 26.60 26.70 28.72 28.88 29.97 28.58 29.09 31.28 32.44 27.97 27.59 28.32 35.54 35.47 36.28 35.31 34.58 31.37 33.13 27.01 22.23 26.63 28.22 30.95 37.19 38.52 37.39 37.55 38.11 39.35 39.95 41.11
41.26 39.32 40.04 41.23 39.21 36.89 33.08 28.55 23.81 24.12 29.15 28.68 25.53 24.30 24.33 24.80 26.72 27.63 27.44 29.64 29.04 31.76 32.65 31.07 27.94 32.33 34.88 37.31 37.63 34.51 35.22 30.39 31.46 23.71 20.07 24.63 26.73 29.41 33.98 34.54 36.10 36.73 38.03 39.31 40.67
39.84 35.61 37.75 39.06 38.26 34.77 29.06 24.92 21.10 26.35 30.00 27.46 24.55 22.62 23.91 25.05 23.46 25.08 25.88 28.71 29.88 30.37 33.73 32.92 30.96 31.72 34.66 32.15 30.60 33.40 32.80 31.42 31.11 28.58 23.68 21.54 25.74 33.62 34.62 35.74 36.26 36.61 37.48 38.20 38.86
36.67 31.09 37.11 37.56 31.11 19.43 24.72 20.19 27.28 27.64 30.26 28.96 29.37 27.34 27.13 26.27 25.73 24.72 25.42 28.63 31.35 30.50 30.52 33.09 30.10 27.86 27.67 35.17 36.63 34.67 32.88 31.62 29.57 24.66 27.02 26.20 25.69 36.60 36.53 36.51 37.41 36.74 37.03 37.86 38.79
32.96 32.75 36.87 35.74 26.87 24.23 20.95 21.42 26.36 27.77 28.51 28.32 27.37 29.19 29.43 26.81 23.55 26.73 26.49 30.63 31.56 31.47 30.19 32.50 28.91 25.73 26.36 30.48 32.99 31.61 33.70 33.31 31.43 30.59 24.72 25.97 26.01 35.62 36.36 35.80 35.96 36.39 36.48 36.40 37.46
33.05 28.74 31.32 33.41 27.66 25.02 21.53 22.90 23.90 29.28 29.27 30.00 28.76 29.85 27.09 24.74 23.30 24.99 26.09 29.43 31.13 30.78 33.08 33.89 27.89 24.19 24.31 25.91 28.42 28.83 31.81 33.30 31.83 29.70 27.30 27.32 26.82 33.39 33.75 33.96 34.45 34.92 35.64 36.20 36.31
31.33 30.94 30.30 26.34 26.94 25.37 24.75 23.10 23.10 23.94 28.86 30.57 27.12 27.95 26.29 22.17 23.10 22.20 23.58 27.31 29.97 29.63 30.19 29.27 25.35 23.30 24.91 24.46 25.59 27.81 29.67 31.41 30.86 30.96 28.48 29.68 29.26 33.16 34.34 33.77 33.54 34.56 35.69 35.79 35.65
29.27 28.29 26.09 24.25 25.06 25.47 25.87 20.93 24.62 25.17 26.79 25.97 24.46 28.55 27.17 24.41 27.08 22.05 25.84 25.82 27.52 27.72 27.02 26.31 22.89 20.39 21.07 22.40 21.57 23.18 27.92 29.27 31.00 32.75 32.19 31.43 31.40 35.41 34.79 33.69 34.01 33.73 34.33 34.17 34.85
33.39 32.37 32.78 26.76 24.70 26.19 25.85 24.69 25.31 28.54 28.19 29.81 29.04 28.03 25.11 27.32 29.19 30.17 30.42 29.86 29.17 26.50 22.22 22.41 19.42 18.70 20.15 14.04 16.69 18.93 21.85 27.56 29.48 32.38 32.52 28.36 33.95 33.99 31.47 31.88 32.57 33.10 33.79 33.67 34.40

GFSSW_sfc_wetblb_249.txt.gz
Wetbulb
52.79 52.85 52.91 53.33 53.25 53.28 53.59 53.82 53.90 53.89 53.88 54.23 54.49 54.60 54.78 54.78 54.11 51.22 46.83 49.64 51.64 55.22 54.07 51.41 50.77 49.63 49.55 45.12 45.97 47.80 38.50 36.22 38.45 39.50 41.61 47.46 48.79 53.54 56.26 54.57 56.89 60.35 60.46 63.52 64.33
52.31 52.26 52.61 52.84 52.70 52.88 53.19 53.60 53.78 53.74 53.81 54.13 54.33 54.29 54.59 54.09 49.60 47.10 50.85 52.36 54.46 55.02 51.10 47.95 45.57 46.93 44.83 43.43 43.55 40.83 36.73 37.52 42.26 42.64 41.41 44.39 47.12 51.64 51.67 52.41 53.75 58.71 61.94 63.83 63.53
51.76 51.91 52.31 52.40 52.32 52.87 53.19 53.43 53.54 53.51 53.79 54.07 54.12 53.86 54.17 52.66 44.72 45.41 51.69 52.90 54.06 54.08 51.67 49.97 47.72 45.31 41.75 43.80 42.74 40.81 35.74 39.97 40.73 41.50 41.91 41.82 46.79 51.30 49.36 49.38 52.94 53.69 59.62 61.50 61.76
51.45 51.92 51.93 52.07 52.34 52.70 53.06 53.33 53.31 53.37 53.97 54.03 53.72 53.48 53.86 49.95 37.48 48.27 52.52 52.61 53.09 51.83 49.87 46.92 44.24 40.08 37.77 37.10 42.06 36.81 40.13 40.30 41.12 41.64 40.97 39.46 42.94 46.73 49.94 52.05 55.63 57.50 60.11 60.57 60.53
51.61 51.76 51.87 51.86 52.00 52.30 52.71 52.99 53.13 53.43 53.85 53.53 52.99 52.97 50.97 44.99 43.67 50.87 51.87 52.76 52.13 50.51 47.34 44.85 41.39 39.75 36.02 38.10 38.91 36.28 39.16 40.36 40.45 40.05 40.16 40.71 38.90 41.27 47.61 53.27 55.20 57.95 60.98 59.17 59.98
51.46 51.49 51.62 51.67 51.70 52.01 52.40 52.83 53.07 53.50 52.94 52.26 52.01 52.36 47.95 40.76 50.09 51.95 51.27 51.25 51.15 49.96 47.68 45.28 42.09 41.95 38.17 37.13 37.24 39.70 39.10 38.76 40.01 38.77 40.32 38.19 38.83 40.44 46.14 52.45 53.36 56.70 57.55 59.07 59.30
51.03 51.25 51.39 51.54 51.58 51.94 52.31 52.64 53.01 52.52 51.63 51.79 52.44 51.41 46.50 43.63 50.93 51.78 51.58 50.86 51.62 50.17 46.56 47.69 46.37 40.61 40.30 37.13 41.49 39.43 34.74 37.77 38.62 38.69 37.71 40.03 37.02 38.25 44.78 51.29 51.81 54.80 56.58 57.59 58.64
50.99 51.01 51.17 51.47 51.53 51.88 52.26 52.49 52.29 50.79 50.92 51.64 53.33 50.11 43.45 50.42 51.85 50.18 51.24 50.96 52.35 51.36 49.16 49.38 48.09 43.18 39.62 41.58 38.67 35.35 35.81 30.46 38.30 37.88 38.46 38.98 33.71 41.02 46.39 49.60 48.81 52.83 52.77 52.92 53.51
50.60 50.76 51.11 51.24 51.32 51.56 51.87 51.97 49.55 50.02 51.00 53.02 50.47 46.89 41.88 50.96 46.63 48.96 50.86 48.42 49.92 49.32 49.04 48.81 46.58 41.66 40.63 35.77 32.03 33.35 28.80 30.96 33.64 38.34 37.37 38.06 34.47 41.98 48.99 49.01 49.84 51.43 51.67 51.55 52.16
50.44 50.74 50.98 50.89 51.00 51.39 51.74 48.53 47.14 49.63 51.54 50.74 47.37 43.73 45.25 41.60 45.85 47.27 51.22 49.65 47.58 47.01 45.18 43.89 42.31 38.42 37.71 35.10 26.30 28.47 29.14 32.46 32.07 36.00 36.92 36.34 35.49 42.35 48.21 49.56 49.92 50.38 51.18 51.30 51.26
50.28 50.58 50.67 50.39 51.06 51.61 47.76 45.43 41.36 40.51 43.73 39.03 39.35 39.91 42.51 45.12 48.67 48.06 48.97 47.97 47.93 46.15 39.83 41.93 37.06 32.69 34.28 36.04 34.16 32.07 31.68 31.86 34.54 38.22 35.17 35.54 35.89 38.68 42.97 48.48 47.90 48.98 49.92 50.21 50.76
49.93 50.40 50.05 50.27 50.69 48.99 47.60 41.88 40.88 41.75 36.62 40.42 39.87 40.50 42.35 43.78 41.37 45.88 48.80 43.75 43.30 39.86 42.41 39.86 35.37 38.12 38.52 39.25 37.67 34.16 32.74 32.07 35.14 35.60 35.00 32.60 33.51 40.45 44.09 43.89 46.62 47.38 48.76 50.22 50.73
49.65 49.91 49.77 49.94 49.50 47.48 44.27 42.48 46.67 45.16 38.03 36.55 37.98 39.07 40.47 42.42 41.22 41.88 44.72 43.84 40.46 39.55 38.97 37.24 38.18 39.19 38.32 39.84 37.23 38.02 35.33 35.76 33.82 33.45 35.77 35.68 31.48 32.80 37.17 39.58 40.82 42.90 45.92 46.50 47.37
49.66 49.40 49.47 49.21 45.77 44.89 41.83 45.47 47.20 45.68 35.80 32.03 36.44 39.57 41.86 41.93 39.79 44.15 45.01 42.09 41.41 36.92 38.46 38.59 41.73 40.49 40.69 38.89 38.42 36.11 40.17 39.75 37.22 34.90 28.50 38.20 24.39 31.81 35.42 36.93 39.61 41.33 42.90 43.94 45.18
49.32 49.07 48.71 47.61 45.13 41.62 42.99 46.56 46.90 42.49 29.64 32.50 35.51 42.92 42.33 39.25 39.34 41.33 44.83 42.92 37.78 37.20 39.40 35.48 36.68 37.51 38.30 37.18 38.85 38.30 41.75 39.80 38.46 34.44 32.42 33.32 28.39 30.84 35.76 34.96 38.40 41.46 44.34 43.96 44.11
48.87 48.37 47.14 45.88 45.66 44.28 46.46 45.14 42.18 34.03 28.78 29.63 34.60 34.98 37.14 38.59 38.27 41.08 41.85 43.95 41.52 38.25 39.70 37.76 41.09 39.33 38.23 40.16 40.01 41.98 41.59 41.09 40.29 38.05 27.16 30.72 31.49 28.36 31.84 34.60 37.72 40.82 42.32 42.71 43.13
48.54 48.31 45.85 45.19 41.49 46.27 45.49 41.87 32.70 30.88 28.62 30.89 30.56 33.71 34.05 33.96 35.53 36.50 36.79 35.35 33.82 33.25 32.06 36.36 37.27 40.07 40.18 39.17 42.79 39.86 37.91 32.89 30.68 28.36 23.28 33.14 28.76 29.72 35.66 37.98 38.70 39.72 41.46 41.68 42.69
48.43 46.93 44.58 44.88 46.77 45.07 43.16 35.58 29.13 26.95 28.48 29.62 30.71 32.43 31.36 32.58 33.74 34.53 34.73 34.18 36.14 34.58 33.15 30.77 30.82 35.83 38.92 36.09 33.96 36.06 34.78 30.87 24.64 25.45 26.64 33.05 25.68 29.16 37.98 40.49 41.44 42.12 42.66 42.94 42.02
48.15 46.75 45.87 44.67 44.82 44.48 38.34 30.93 32.31 32.77 29.47 29.05 29.81 29.22 30.09 31.62 31.53 33.31 31.97 32.17 33.71 34.73 31.26 30.26 30.52 38.38 37.70 38.36 37.72 35.86 32.86 34.93 29.90 27.38 27.78 28.84 31.86 36.77 38.85 38.90 40.05 40.71 41.40 41.12 41.90
44.19 43.03 42.55 43.84 43.12 41.21 33.91 30.90 31.57 27.83 30.93 31.09 28.78 28.35 29.10 29.15 30.14 31.22 30.95 32.07 31.83 34.50 36.27 32.04 29.23 34.64 37.32 40.10 39.63 36.57 37.24 31.94 33.51 24.86 21.08 26.53 28.33 29.29 34.24 36.08 38.72 38.63 39.11 39.90 40.52
42.26 37.55 40.49 42.32 40.80 37.62 31.66 32.47 26.51 28.71 31.72 29.27 28.96 26.43 28.98 28.49 28.66 29.12 29.47 31.39 32.65 33.61 36.44 34.71 32.97 33.50 36.94 33.45 31.79 35.12 34.45 33.74 33.29 30.65 25.29 22.38 27.87 36.54 36.07 37.38 37.84 38.34 38.76 39.21 39.79
40.76 31.94 39.73 40.75 33.15 29.20 31.50 26.36 28.85 29.15 31.88 30.77 31.47 30.56 29.85 29.39 28.35 29.01 29.13 31.24 33.60 33.12 32.25 35.02 31.88 30.06 31.00 36.54 37.45 35.85 34.30 34.12 30.04 26.34 29.58 29.08 28.02 38.46 38.62 38.45 39.10 38.10 38.02 39.32 39.88
34.18 35.30 40.15 38.56 29.75 28.76 25.28 25.31 28.40 28.86 30.22 29.89 29.32 31.49 31.93 29.74 26.33 29.61 29.69 32.69 33.43 33.05 33.26 34.90 31.04 28.92 28.99 32.34 35.23 33.14 34.80 35.24 33.64 32.80 27.54 26.92 28.08 38.59 38.34 37.80 38.17 37.59 37.71 38.08 38.63
35.62 30.60 34.44 36.36 33.01 32.20 26.96 27.44 26.79 31.89 31.16 32.01 30.83 32.13 29.67 26.85 26.48 27.90 28.78 31.46 32.88 32.50 33.25 34.75 30.81 28.33 27.80 28.25 29.89 29.92 33.11 34.63 33.60 30.54 29.41 29.72 30.34 34.43 36.21 36.14 36.80 36.80 37.61 37.72 37.88
33.85 32.69 33.20 27.35 29.64 29.34 30.77 29.09 27.07 25.99 30.82 32.56 28.93 30.24 29.16 24.75 25.65 24.98 27.91 29.57 31.87 31.08 32.25 32.26 28.24 27.23 28.69 28.00 28.03 29.35 30.64 32.89 31.85 33.16 29.50 31.48 31.44 35.14 36.78 36.89 36.78 37.26 37.47 36.94 36.79
30.60 31.82 29.63 31.57 32.10 29.87 29.01 26.53 27.41 28.37 28.70 27.52 27.19 30.41 31.01 27.20 29.27 25.51 28.12 29.19 29.76 29.87 29.84 29.65 26.60 24.22 23.61 26.31 25.05 23.64 29.02 31.26 32.20 33.73 33.31 33.49 32.39 39.40 38.42 36.98 36.10 35.95 36.07 35.68 36.11
39.28 36.21 36.24 30.72 30.08 29.33 30.44 29.81 28.60 31.29 31.38 32.88 31.13 30.86 28.92 29.95 31.96 33.25 33.26 32.85 32.01 28.52 26.49 26.28 23.32 23.16 23.33 18.18 19.36 19.95 22.87 29.12 31.68 34.40 35.03 30.46 35.80 37.65 34.13 34.97 34.89 34.80 35.50 35.25 35.93

GFSSW_sfc_wetblb_255.txt.gz
Wetbulb
53.07 53.05 53.19 53.42 53.36 53.46 53.91 54.16 54.35 54.40 54.34 54.67 55.01 55.21 55.05 55.17 55.03 51.05 43.41 48.52 51.47 55.62 54.88 49.87 48.13 46.50 45.56 42.96 43.08 40.29 30.36 28.00 30.39 32.25 33.38 36.77 35.75 40.06 43.01 45.04 50.50 59.31 58.44 60.76 61.86
52.44 52.48 52.91 52.96 52.97 53.32 53.60 53.89 53.93 54.09 54.07 54.40 54.81 54.96 54.59 54.86 49.84 44.50 50.95 54.07 54.81 54.95 48.45 45.12 42.79 43.95 39.40 40.96 40.53 34.61 29.02 30.86 35.76 36.58 35.85 37.21 35.92 37.18 37.54 42.52 49.52 52.00 58.68 61.72 62.16
51.95 52.42 52.65 52.63 52.65 52.87 53.14 53.52 53.72 53.90 53.94 54.32 54.70 54.57 54.13 53.17 45.35 44.06 52.86 53.89 54.53 53.74 48.79 47.51 45.61 42.88 37.44 39.12 38.32 36.85 30.85 36.22 38.38 40.03 39.67 37.05 36.60 38.21 36.56 41.88 45.31 48.05 50.93 56.31 59.94
51.84 52.22 52.41 52.32 52.41 52.51 52.87 53.18 53.52 53.77 53.97 54.26 53.80 53.60 53.83 50.29 33.92 47.43 53.04 54.29 54.87 52.42 48.44 45.49 42.71 37.58 35.17 34.22 38.28 32.87 37.56 38.38 39.15 40.33 39.12 35.80 37.27 35.65 36.13 38.11 41.86 46.21 50.97 53.87 58.12
51.65 51.72 51.67 52.11 52.14 52.43 52.61 53.15 53.46 53.66 53.85 53.36 53.38 53.30 50.31 43.73 41.61 50.80 55.23 53.02 51.45 50.29 45.90 42.97 39.70 37.62 33.19 35.44 36.66 33.67 36.02 38.85 39.51 39.37 38.82 39.17 35.56 34.73 35.68 38.86 43.11 44.04 53.48 54.63 57.70
51.31 51.45 51.70 51.70 51.96 52.29 52.51 52.76 53.08 53.39 53.42 52.67 53.20 53.54 47.59 38.90 49.27 51.29 49.73 50.93 50.79 48.45 45.68 44.68 42.26 40.98 36.67 35.96 34.40 36.77 37.13 37.84 39.09 38.40 38.69 36.45 35.42 36.20 36.40 39.21 42.30 52.36 54.46 56.11 57.30
51.26 51.51 51.34 51.66 51.96 52.03 52.27 52.61 53.19 53.20 51.87 52.18 52.90 51.28 46.16 42.33 49.30 49.31 50.42 50.05 51.15 48.93 45.01 46.59 44.34 39.41 38.44 35.52 39.67 37.74 33.51 35.76 36.79 38.02 36.64 38.05 32.61 32.48 39.00 39.30 40.56 51.04 53.48 54.29 54.75
51.06 51.29 51.31 51.73 51.74 51.65 52.12 52.74 52.80 51.32 51.67 52.22 52.65 49.36 42.01 49.80 47.10 49.26 49.78 49.82 51.23 50.14 48.15 48.04 46.49 42.23 38.76 40.25 38.19 35.08 33.88 27.53 35.19 37.26 38.46 35.53 26.13 37.77 42.52 40.41 39.48 50.68 51.97 52.63 53.62
50.96 50.95 51.31 51.59 51.26 51.43 52.15 51.73 50.98 50.39 52.59 51.65 48.90 44.76 39.05 51.10 45.73 48.00 48.22 47.19 48.71 49.33 47.85 49.51 45.97 39.98 40.98 36.13 33.28 32.82 21.61 29.58 31.56 37.03 36.16 34.99 30.66 38.26 43.42 44.85 44.62 49.41 51.07 51.70 52.35
50.79 50.78 51.18 51.00 50.94 51.39 51.37 51.14 48.38 48.40 51.29 51.63 48.32 39.79 43.13 40.11 44.35 46.30 48.67 48.99 46.38 46.14 45.01 42.70 39.82 34.39 34.76 34.80 26.90 27.84 27.59 30.25 28.89 35.38 35.61 33.10 33.81 38.47 40.13 42.08 42.56 47.35 49.93 50.79 51.00
50.64 50.55 50.82 50.49 50.75 51.16 47.76 42.47 37.76 37.92 39.93 35.46 37.34 38.52 40.58 43.16 46.50 46.15 47.33 46.17 46.23 43.11 35.75 39.57 31.84 27.34 32.15 35.82 34.40 31.93 31.31 28.50 31.66 35.81 33.58 33.68 33.53 36.90 38.89 39.74 40.36 46.95 48.29 50.06 51.01
50.39 50.16 50.34 50.29 50.47 50.96 45.37 38.67 38.22 38.77 32.15 39.08 39.10 39.74 42.28 42.51 39.55 43.66 46.58 41.32 40.78 34.57 38.23 33.51 26.96 35.85 38.19 38.87 38.14 32.91 27.77 29.42 34.47 36.01 33.24 32.48 32.77 36.55 38.28 38.81 41.95 43.73 43.05 44.76 50.56
49.78 50.06 49.99 50.17 49.89 44.68 40.64 40.39 44.93 43.07 33.81 34.97 37.29 38.38 39.17 41.52 39.41 40.15 42.42 40.65 37.55 35.77 34.58 28.52 34.40 38.67 37.61 36.33 36.39 36.07 33.29 32.29 31.60 34.21 34.82 33.39 29.29 32.44 36.15 38.11 41.72 43.26 43.64 43.36 45.58
49.55 49.70 49.76 49.44 44.78 40.44 38.16 44.07 45.17 41.81 25.29 30.25 34.68 38.49 40.79 41.22 37.81 43.39 43.64 40.91 38.53 33.71 34.78 33.89 37.12 35.86 35.44 34.70 34.95 34.00 37.66 36.20 33.69 30.68 22.40 31.20 22.39 30.23 33.03 33.77 37.40 39.66 41.29 42.56 45.01
49.44 49.19 49.07 48.38 40.79 38.56 41.51 44.49 43.42 38.30 15.01 31.25 33.71 41.70 40.55 37.25 37.60 39.02 42.92 40.66 34.36 34.51 33.35 31.11 33.25 32.57 32.97 34.55 35.44 35.09 38.02 36.58 34.51 31.19 29.14 26.69 24.18 28.26 33.05 33.90 36.02 38.18 39.43 40.72 43.31
49.61 48.51 47.94 44.19 41.05 41.44 44.27 42.35 38.58 22.85 14.42 26.21 33.15 33.35 34.54 36.40 36.34 38.59 39.79 41.27 39.60 36.16 35.61 33.69 36.79 35.13 33.54 36.25 35.82 38.37 35.26 35.54 33.57 29.69 20.02 26.13 24.64 25.54 29.41 33.61 36.29 37.54 38.98 39.65 40.20
49.30 48.01 44.60 44.07 38.14 43.00 42.15 36.92 21.61 15.99 25.55 20.92 26.68 31.49 30.97 30.36 33.22 34.98 34.19 30.20 25.12 22.62 22.72 30.30 32.13 35.53 36.33 32.50 35.90 33.83 30.89 22.23 19.33 18.85 16.67 27.08 25.07 24.58 32.66 35.66 36.61 36.73 37.63 39.00 39.74
48.95 46.62 45.06 44.05 42.67 41.93 38.65 25.24 15.00 16.76 16.50 27.64 28.11 29.61 26.90 29.58 30.24 32.39 32.03 26.20 32.00 29.54 21.18 20.15 20.62 31.76 35.64 31.87 29.54 29.88 28.56 20.70 14.78 17.28 19.76 26.60 21.83 25.44 34.31 36.30 36.60 37.31 37.13 37.75 37.86
48.44 41.58 40.88 41.04 42.51 39.70 29.41 14.29 18.51 20.20 26.67 26.32 27.02 24.24 23.23 28.73 27.55 29.12 26.03 25.69 29.71 31.18 22.55 19.63 23.18 34.16 34.80 35.14 33.37 30.81 24.91 30.53 24.36 17.49 19.66 22.13 26.06 31.45 35.02 34.63 34.62 34.90 34.93 34.45 34.79
40.18 39.03 38.68 41.43 40.27 36.28 22.44 21.43 18.94 26.13 28.52 29.00 21.93 24.70 17.16 22.66 25.14 25.99 26.51 28.93 29.21 32.56 32.56 28.95 21.05 30.46 33.96 35.92 35.00 32.11 34.32 24.96 23.51 11.29 11.98 20.51 22.48 23.16 29.87 31.37 32.54 31.88 31.73 32.48 33.18
39.74 32.96 38.15 41.04 38.30 28.70 18.15 15.80 18.43 26.81 30.81 27.34 25.58 19.88 25.13 21.65 22.18 24.41 25.74 28.39 29.48 30.77 32.77 31.31 27.16 26.34 30.84 28.57 27.78 28.98 28.06 28.78 27.27 24.48 19.82 17.07 20.21 29.61 31.50 32.58 31.05 31.47 32.70 31.82 31.87
37.87 28.08 37.22 38.22 23.35 17.39 18.51 19.58 29.60 26.10 30.48 28.13 28.36 28.22 26.18 26.13 24.51 23.85 25.90 27.25 30.08 30.37 28.08 32.30 28.83 19.45 25.62 33.00 34.35 32.04 30.35 29.85 22.37 21.88 22.69 24.20 21.34 33.94 33.31 32.99 32.12 31.47 32.17 31.86 31.75
32.94 32.92 38.65 35.84 18.01 16.17 17.81 18.29 25.99 27.34 27.61 27.96 25.22 28.29 29.25 25.98 19.69 26.85 26.15 30.89 31.04 30.05 29.11 31.12 21.75 14.26 19.81 26.10 30.20 28.53 30.99 32.00 29.76 26.61 23.42 18.59 20.55 33.65 33.61 31.79 31.57 30.16 30.33 30.71 30.79
33.74 27.88 33.38 33.75 28.62 24.55 15.90 16.45 17.07 29.21 29.14 30.09 28.40 28.70 26.25 23.40 22.21 21.12 26.42 29.54 30.62 30.85 34.31 33.52 27.58 22.80 19.31 22.97 25.03 25.45 29.14 30.70 28.59 20.37 23.84 23.21 24.72 29.12 30.72 29.35 29.64 29.65 29.88 29.97 30.57
32.74 31.37 30.48 23.38 23.57 25.02 23.01 22.24 21.23 19.67 27.53 29.51 26.25 27.26 25.48 18.15 21.11 18.71 22.62 26.91 29.01 31.21 29.80 26.41 14.97 20.69 24.98 24.79 24.09 24.67 25.91 27.58 27.39 27.85 23.06 24.98 26.53 30.14 31.08 29.70 29.09 29.72 30.50 30.80 30.99
30.32 30.88 31.16 29.12 27.67 25.97 26.64 20.77 24.41 25.70 25.02 23.36 24.00 26.05 27.17 21.94 23.83 19.50 25.26 24.61 24.41 25.79 26.49 26.82 13.63 15.95 11.14 21.89 22.24 21.75 23.33 23.92 25.59 28.53 29.27 29.16 27.32 32.99 32.23 30.05 28.54 30.48 30.84 30.33 30.80
36.82 36.07 34.76 31.83 29.01 23.02 22.61 25.96 25.77 28.16 27.78 28.84 27.62 26.20 26.19 27.37 28.31 27.65 28.63 27.58 27.75 23.94 19.22 18.62 11.58 7.26 6.33 10.33 11.76 10.12 15.86 22.87 24.86 28.31 29.61 25.83 28.92 30.94 29.07 30.92 29.71 29.75 30.72 30.67 31.19

GFSSW_sfc_wetblb_258.txt.gz
Wetbulb
53.01 52.95 53.34 53.37 53.32 53.50 53.88 54.07 54.29 54.39 54.41 54.58 55.10 55.18 55.11 55.20 54.91 48.21 43.44 49.22 51.76 55.80 54.40 47.47 46.68 45.23 43.99 41.74 41.93 38.64 29.63 26.62 28.72 29.59 30.95 36.04 34.24 37.25 40.87 38.64 43.48 50.45 56.70 59.22 61.35
52.39 52.47 52.80 53.21 53.00 52.99 53.32 53.59 53.83 54.07 54.30 54.45 54.86 54.70 54.69 54.62 49.40 43.97 50.74 54.80 55.40 55.34 47.19 43.81 41.94 42.85 38.68 39.28 39.38 33.49 27.54 28.70 33.70 34.68 34.38 36.28 34.68 35.21 35.10 36.59 42.36 39.97 46.79 55.16 61.62
51.79 52.23 52.62 52.63 52.70 52.98 53.21 53.30 53.64 53.84 54.05 54.27 54.18 54.15 53.94 52.69 43.44 43.30 53.54 54.53 55.41 54.25 48.44 46.41 44.08 41.53 36.49 37.99 36.78 35.43 29.60 35.16 36.78 38.49 38.36 36.53 35.78 36.20 34.26 34.72 38.85 37.73 40.64 45.73 57.41
51.68 52.02 52.11 52.16 52.34 52.78 53.08 53.22 53.47 53.69 53.94 53.86 53.69 53.82 54.14 49.40 32.19 46.22 53.67 55.17 55.47 51.78 48.28 44.34 41.75 36.59 33.93 33.19 37.28 31.66 36.48 37.11 37.98 39.18 37.79 35.37 36.71 35.33 34.02 35.43 41.11 42.17 46.18 45.06 54.83
51.22 51.53 51.74 51.92 52.11 52.55 52.84 53.01 53.14 53.55 53.81 53.33 53.49 53.86 49.42 41.40 40.61 49.43 54.81 52.84 50.90 49.38 44.81 41.98 38.91 36.65 31.67 34.25 35.71 32.77 34.72 37.98 39.06 39.10 38.43 38.64 34.92 34.80 35.25 39.41 41.14 44.80 47.78 55.14 56.19
50.96 51.34 51.40 51.48 52.06 52.24 52.40 52.77 53.17 53.43 53.42 52.47 53.13 53.93 46.31 36.10 47.91 49.84 48.83 50.01 49.88 47.19 44.88 43.85 40.95 40.12 35.98 35.09 33.62 36.23 36.57 36.66 37.96 37.82 38.37 36.18 34.93 35.69 37.09 43.29 41.34 42.85 52.46 54.46 55.16
50.81 51.21 51.16 51.46 51.84 51.98 52.08 52.51 53.39 53.03 51.75 52.19 52.70 50.87 44.76 39.96 47.69 48.26 49.36 48.88 49.98 47.63 44.13 45.54 43.39 39.31 37.57 34.39 39.05 36.88 33.07 34.89 35.81 37.16 35.99 36.78 31.59 34.02 41.29 43.56 39.13 48.24 50.88 53.63 55.61
50.85 50.99 51.12 51.54 51.82 51.56 51.94 52.57 52.12 51.43 52.27 52.50 52.54 47.76 39.65 48.26 45.73 47.86 48.32 48.62 50.21 48.94 47.39 47.08 45.86 41.70 38.40 40.52 38.44 33.91 31.63 26.70 34.68 36.09 37.01 33.96 26.35 36.92 41.89 41.98 43.41 48.26 50.75 52.55 53.85
50.61 50.95 51.05 51.54 51.10 51.30 51.92 52.12 51.52 50.40 53.06 51.80 46.56 42.27 36.81 50.22 44.00 46.32 46.38 45.72 47.45 48.42 46.90 49.02 44.88 39.29 39.95 35.22 30.27 30.70 24.97 23.29 30.55 37.45 35.61 33.96 30.94 38.11 42.15 42.94 44.52 46.83 50.01 51.49 52.63
50.63 50.76 50.86 51.07 50.91 51.26 51.77 51.50 48.48 47.13 49.48 50.91 47.97 38.50 41.17 38.67 42.60 44.76 46.91 47.67 45.13 45.07 43.80 41.72 38.56 33.21 35.95 27.49 23.87 26.41 18.98 27.87 28.47 34.12 35.50 33.74 33.46 38.01 40.72 42.92 43.83 46.88 49.16 50.66 50.92
50.84 50.42 50.80 50.57 50.88 51.30 48.19 41.23 35.61 36.84 37.72 34.08 35.24 36.73 39.07 41.99 44.74 45.03 45.90 44.47 44.97 42.10 34.31 38.15 31.08 27.76 34.08 33.22 32.84 28.06 23.82 27.22 31.09 34.80 34.62 33.25 33.60 36.03 38.99 41.50 42.21 42.88 44.49 45.90 50.58
50.67 50.38 50.40 50.40 50.67 51.06 43.24 37.75 36.79 37.23 31.16 37.99 37.45 38.20 40.72 41.29 38.82 43.00 45.64 40.18 39.37 33.45 35.90 31.07 26.93 33.69 38.35 36.86 33.13 28.14 23.56 27.36 33.46 35.96 34.17 32.93 32.10 35.33 37.13 38.04 40.61 41.63 42.66 44.48 47.53
50.29 49.86 50.08 50.27 50.15 43.37 40.43 39.49 44.25 42.46 32.30 33.96 36.12 37.50 37.95 40.63 37.93 39.25 41.56 39.53 36.22 33.91 32.61 27.76 32.93 37.61 37.47 35.87 34.23 33.52 30.75 31.33 26.67 33.13 34.14 33.10 28.77 31.56 35.72 37.49 39.27 41.67 42.41 44.33 45.57
49.78 49.61 49.77 49.37 43.64 39.49 37.66 43.43 44.34 41.09 23.36 29.98 33.22 37.08 39.32 39.56 36.33 42.17 42.32 39.68 36.84 32.54 33.15 32.53 35.15 34.48 34.43 33.59 34.86 31.17 36.60 35.02 33.06 29.44 25.04 31.25 22.48 29.69 33.38 35.07 36.61 39.49 39.45 40.79 42.76
49.47 49.22 49.17 48.68 39.52 37.20 40.41 43.48 42.00 36.46 15.93 30.46 32.51 40.58 38.87 35.86 36.05 38.03 41.82 39.12 32.25 32.38 31.79 30.40 32.15 31.76 31.09 32.89 33.84 32.87 37.22 34.91 34.54 28.63 25.98 27.66 24.46 28.29 34.23 32.89 34.50 37.38 38.59 38.76 40.39
49.58 48.71 48.11 42.84 39.95 40.27 42.98 40.70 37.06 22.89 15.41 25.65 32.20 32.43 33.22 35.16 34.93 37.47 38.41 39.78 38.11 34.66 33.58 32.30 35.77 33.66 32.64 34.88 34.67 35.98 34.79 33.85 32.07 29.52 19.25 24.10 25.03 25.28 30.00 33.28 35.25 36.80 37.72 38.41 39.16
49.58 47.67 44.15 43.34 37.24 42.04 40.95 34.22 21.54 17.29 25.16 20.65 26.24 30.05 30.05 29.33 31.74 34.02 32.71 28.42 23.57 19.71 18.96 29.08 31.36 34.04 34.83 30.94 34.18 32.55 29.68 20.92 17.09 16.11 18.95 26.43 24.72 24.76 32.35 35.49 35.86 35.26 35.88 37.16 38.08
49.07 46.04 44.64 43.14 41.01 40.70 35.52 25.10 14.83 14.81 15.50 26.96 27.85 28.75 26.67 28.65 29.44 31.21 30.06 24.75 30.16 27.43 18.52 19.57 19.57 30.40 34.37 30.87 29.00 28.80 27.69 20.63 13.51 16.27 19.29 26.20 21.47 25.86 33.71 35.79 36.08 35.99 35.93 36.17 35.69
47.83 40.07 39.56 40.05 41.58 38.81 27.62 14.52 18.34 16.76 25.67 25.83 26.80 22.54 21.43 28.83 27.14 28.32 24.52 24.17 28.44 29.87 22.06 19.93 22.46 32.90 33.14 33.84 32.33 29.12 24.79 28.77 23.40 15.64 18.51 21.07 25.04 30.62 33.62 33.04 32.83 33.56 32.95 32.51 33.05
40.72 37.79 37.56 40.64 38.90 32.39 22.63 21.54 17.82 26.76 28.28 28.03 20.03 22.82 14.22 20.25 23.32 24.15 25.36 27.85 28.89 31.75 31.68 28.10 20.79 28.87 33.19 33.91 33.19 30.97 32.97 23.76 22.57 9.70 11.03 19.90 22.11 22.62 29.18 30.24 30.78 30.32 30.51 31.26 31.39
39.74 31.44 37.24 39.95 36.60 26.62 17.72 14.43 17.97 26.18 29.52 27.19 24.30 17.51 24.30 20.10 19.77 22.37 24.40 27.94 28.43 29.86 31.53 30.38 25.90 25.20 29.48 27.57 26.48 28.45 27.08 27.83 25.73 23.77 18.43 16.05 19.50 28.04 30.53 31.18 29.47 29.62 30.39 30.04 30.36
37.15 25.51 36.26 37.01 22.97 11.37 15.81 17.73 28.90 25.82 29.33 27.22 27.42 25.96 25.11 24.99 22.97 22.33 24.86 26.60 28.77 29.37 28.34 31.57 28.11 22.52 24.46 31.68 33.17 30.61 28.26 28.44 20.69 20.36 21.78 23.33 21.11 32.01 32.39 31.58 30.73 30.02 30.45 29.64 30.14
33.08 32.93 39.11 34.03 18.07 14.79 16.84 17.18 25.27 26.09 26.93 27.40 24.73 27.88 28.75 26.01 20.19 25.32 25.35 30.13 29.64 29.02 28.24 31.09 22.04 11.80 18.99 25.19 29.01 27.81 30.09 30.25 28.21 25.94 22.34 18.12 19.53 32.28 31.36 29.85 29.88 28.88 28.78 29.43 28.63
33.85 27.92 33.28 32.34 26.98 20.90 14.43 14.39 16.20 28.44 28.35 28.93 27.54 28.76 26.48 23.45 21.47 19.66 26.15 28.78 29.62 30.29 34.72 33.38 27.11 21.19 16.24 22.20 24.22 25.10 28.22 29.49 27.79 19.67 22.79 22.73 23.35 27.80 28.92 27.94 27.82 27.89 28.40 28.55 28.93
32.71 31.44 31.95 25.00 22.25 25.52 22.04 20.81 19.44 18.59 27.46 28.89 26.43 27.17 25.41 18.44 20.50 18.96 21.45 26.54 28.24 30.88 29.68 26.66 16.06 19.82 24.91 25.19 24.18 24.60 26.28 27.52 26.97 26.91 22.81 23.36 25.75 29.75 30.74 28.53 27.92 28.01 28.70 28.95 29.10
31.43 31.19 31.98 29.37 28.18 27.08 25.44 20.03 23.57 24.07 24.84 23.65 23.87 25.97 26.39 21.67 24.20 19.73 25.52 24.26 24.48 25.34 26.35 26.91 12.92 14.85 10.86 20.38 21.11 21.51 23.62 23.98 24.83 26.17 26.87 27.61 26.66 31.47 32.24 28.46 26.68 28.50 29.06 28.91 29.38
36.89 36.51 35.49 31.67 29.08 27.40 23.81 24.88 26.65 26.96 27.05 28.35 27.27 25.91 25.76 26.89 28.12 26.61 27.15 27.19 27.42 24.07 19.49 18.55 11.36 6.86 5.85 9.22 10.82 11.59 14.72 22.83 23.31 25.31 27.66 25.70 29.24 30.29 28.33 29.63 28.57 28.56 29.46 29.45 29.87